Regional Weather Roundup
Issued by NWS Midland/Odessa, TX

Skip options and go directly to product.
Home | Oldest Version | Previous Version | Current Version | All | Text Only | Save Text | Print | Product List | Glossary Off

Skip product version selection by date and time.   

392
ASUS44 KMAF 310010
RWRMAF
MIDLAND AREA WEATHER ROUNDUP
NATIONAL WEATHER SERVICE MIDLAND TX
600 PM CST FRI JAN 30 2015

...IN SOUTHWEST TEXAS AND SOUTHEAST NEW MEXICO...

CITY           SKY/WX    TMP DP  RH WIND       PRES   REMARKS
ALPINE         CLOUDY    42  36  78 NE10      30.19F WCI  36
ANDREWS        CLOUDY    44  31  59 SE12      30.22F WCI  38
ARTESIA        CLOUDY    41  34  75 SE8       30.20F WCI  36
BIG SPRING     CLOUDY    51  31  46 E6        30.27S
CARLSBAD       CLOUDY    43  32  65 SE3       30.17F
DRYDEN           N/A     52  40  63 E6        30.19S
FORT STOCKTON  CLOUDY    47  39  74 SE16G41   30.18F
GUAD PASS      FRZ RAIN  32  32 100 NE33      30.10S VSB<1/4 WCI  17
HOBBS          CLOUDY    41  32  70 E12       30.20F WCI  34
MARFA          CLOUDY    43  36  75 NE13      30.12F WCI  36
MIDLAND AIRPK  CLOUDY    49  32  52 E9        30.24F
MIDLAND INTL   CLOUDY    48  32  53 E12       30.22F
ODESSA         CLOUDY    47  31  53 SE10      30.22F
PECOS          CLOUDY    47  36  65 E8        30.18F
PRESIDIO       MOCLDY    56  39  52 NE15G25   30.04F
SEMINOLE       CLOUDY    44  30  58 SE7       30.23S
SNYDER         CLOUDY   N/A N/A N/A E9        30.28R
WINK           CLOUDY    48  32  53 E10       30.17F
$$
...OTHER STATIONS IN TEXAS...

CITY           SKY/WX    TMP DP  RH WIND       PRES   REMARKS
ABILENE        CLOUDY    50  31  48 E10       30.29S
AMARILLO       CLOUDY    37  30  75 SE7       30.25F WCI  32
AUSTIN         MOCLDY    56  38  50 E8        30.29S
BROWNSVILLE    MOCLDY    68  61  78 E10       30.20S
CORPUS CHRISTI CLOUDY    58  52  80 E17       30.25R
DALLAS FTW     CLOUDY    54  29  38 E7        30.33F
DEL RIO        CLOUDY    59  38  45 SW6       30.20F
EL PASO        LGT RAIN  47  41  80 N8        30.04S
HOUSTON INT    MOCLDY    57  37  47 E8        30.30F
LUBBOCK        CLOUDY    42  28  57 SE12      30.25S WCI  36
SAN ANGELO     CLOUDY    51  34  52 NE12      30.26R
SAN ANTONIO    MOCLDY    55  39  54 NE12      30.27F
WACO           CLOUDY    52  35  52 NE6       30.32S
WICHITA FALLS  NOT AVBL
$$
...OTHER LOCATIONS IN NEW MEXICO...

CITY           SKY/WX    TMP DP  RH WIND       PRES   REMARKS
ALAMAGORDO     CLOUDY    45  45 100 NW9       30.05F WCI  40
ALBUQUERQUE    CLOUDY    36  33  89 N6        30.08F WCI  31
CANNON AFB     LGT RAIN  35  31  84 SE6       30.20F WCI  30
CLOVIS         CLOUDY    36  28  75 SE7       30.20F WCI  30
HOLLOMAN AFB   CLOUDY    45  43  93 NW7       30.05F
ROSWELL        CLOUDY    40  32  73 SE6       30.19S WCI  36
RUIDOSO        FOG       30  30 100 SE9       30.12F VSB 1/2 WCI  22
SANTA FE       MIX PCPN  31  28  89 SE10      30.10F WCI  22
TRUTH OR CONSE LGT RAIN  40  39  97 N3        30.06S
TUCUMCARI      CLOUDY    37  34  89 S6        30.19S WCI  32
$$

USA.gov is the U.S. government's official web portal to all federal, state and local government web resources and services.